[[{"header":{"parameterUnit":"m.s-1","parameterCategory":2,"la1":30.2991,"la2":30.254,"lo1":-89.0895,"lo2":-89.0444,"dy":0.0017,"dx":0.0017,"nx":28,"ny":28,"refTime":"2023-10-05T09:00:00:Z","depth":"0","parameterNumber":2,"parameterNumberName":"U-component_of_CURRENTS"},"data":[0,0,0,0,0,0,0,0,0,0,0,0,0,0,0,0,0,0,0,0,0,0,0,0,0,0,0,0,0,0,0,0,0,0,0,0,0,0,0,0,0,0,0,0,0,0,0,0,0,0,0,0,0,0,0,0,0,0,0.3756,0.3752,0,0.3571,0.3571,0.3571,0.3569,0.3569,0.3569,0.3569,0.3392,0.3387,0.3383,0,0,0,0,0,0,0,0,0,0,0,0,0,0.3983,0.3982,0.3757,0.3752,0.3747,0.3571,0.3571,0.3571,0.3569,0.3569,0.3569,0.3568,0.3393,0.3388,0.3383,0,0,0,0,0,0,0,0,0,0,0,0,0,0.3877,0.3981,0.3758,0.3704,0.3695,0.3571,0.3571,0.3571,0.3569,0.3569,0.3569,0.3568,0.3395,0.3388,0.3382,0.3347,0,0,0.3361,0.3358,0,0,0,0,0,0,0,0,0.3883,0.3873,0.3717,0.3707,0.3697,0.3568,0.3584,0.3487,0.3569,0.3647,0.3569,0.3568,0.3433,0.3423,0.343,0.3339,0.3332,0.3361,0.3357,0.3354,0.3352,0,0,0,0,0,0,0,0.3891,0.3879,0.3712,0.3711,0.3698,0.3643,0.3633,0.3568,0.3567,0.364,0.3633,0.3567,0.3432,0.3436,0.3425,0.3329,0.3361,0.3355,0.3351,0.3348,0.3182,0.3181,0,0,0,0,0,0,0.3863,0.3887,0.3717,0.3704,0.3759,0.3638,0.3627,0.3633,0.3567,0.3548,0.3567,0.3567,0.3448,0.3433,0.3418,0.3387,0.3354,0.3347,0.3344,0.3182,0.3182,0.3181,0,0,0,0,0,0,0.3871,0.3854,0.3724,0.3764,0.374,0.3632,0.364,0.3629,0.3623,0.3506,0.3494,0.3567,0.3447,0.3428,0.3398,0.3379,0.3344,0.3338,0.3183,0.3182,0.3181,0.3315,0,0,0,0,0,0,0.388,0.386,0.3873,0.3765,0.3736,0.3662,0.3637,0.3624,0.3569,0.3568,0.3501,0.3486,0.3445,0.3409,0.3391,0.3369,0.3333,0.3183,0.3182,0.3182,0.3311,0.3319,0.3326,0,0,0,0,0,0.389,0.3899,0.3877,0.3854,0.3755,0.3659,0.3645,0.3583,0.3569,0.358,0.3554,0.3487,0.3389,0.3405,0.3384,0.3359,0.3183,0.3183,0.3182,0.3308,0.3317,0.3326,0,0,0,0,0,0,0.3998,0.3893,0.3868,0.3847,0.3759,0.3648,0.3632,0.3582,0.3572,0.3575,0.3505,0.3489,0.3452,0.3386,0.3404,0.3305,0.3264,0.3259,0.3366,0.3375,0.3382,0.3363,0.3327,0,0,0,0,0,0.4023,0.4006,0.3892,0.3865,0.3839,0.3742,0.3696,0.3644,0.3589,0.3585,0.3538,0.3479,0.3431,0.3393,0.3345,0.3296,0.3224,0.3255,0.3263,0.327,0.3238,0.3159,0.3157,0.3178,0.3178,0.3178,0,0,0.403,0.3977,0.3956,0.3883,0.3829,0.3766,0.3725,0.3653,0.361,0.3562,0.3543,0.3511,0.3428,0.3396,0.3365,0.3337,0.3231,0.3269,0.3276,0.3239,0.3158,0.3156,0.3154,0.3178,0.3178,0.3178,0,0,0.4005,0.4027,0.3988,0.3934,0.3825,0.3784,0.3761,0.367,0.3667,0.3623,0.3587,0.3551,0.347,0.342,0.3377,0.338,0.3285,0.3353,0.3362,0.3289,0.3286,0.3283,0.322,0.321,0.3344,0.3344,0.3345,0,0.4001,0.3959,0.3956,0.3898,0.3837,0.3794,0.3725,0.3717,0.3626,0.3614,0.3626,0.3516,0.3471,0.3394,0.3419,0.3393,0.3345,0.3349,0.3301,0.3296,0.329,0.3226,0.3213,0.3351,0.335,0.3349,0.3349,0,0.3931,0.3896,0.3876,0.381,0.378,0.371,0.3676,0.3675,0.3668,0.3627,0.3586,0.3554,0.347,0.3461,0.3449,0.3378,0.3357,0.3338,0.3288,0.3297,0.3228,0.3213,0.336,0.3358,0.3356,0.3354,0,0,0.3853,0.3828,0.38,0.3772,0.3722,0.3677,0.3675,0.363,0.3602,0.3586,0.3541,0.3505,0.349,0.3439,0.3412,0.3363,0.3326,0.3349,0.3342,0.3303,0.3174,0.3152,0.3133,0.3315,0.3312,0.331,0.3153,0,0.3761,0.3666,0.3684,0.3595,0.3551,0.357,0.3567,0.3544,0.3547,0.3525,0.3507,0.346,0.3479,0.3449,0.3412,0.3342,0.3285,0.3369,0.3152,0.3145,0.3139,0.3114,0.3021,0.2872,0.3137,0.3135,0.3133,0,0.362,0.36,0.3507,0.3501,0.3489,0.3458,0.3455,0.3445,0.3445,0.3451,0.3423,0.341,0.3355,0.3375,0.3242,0.3302,0.3239,0.3191,0.3183,0.3092,0.3093,0.2895,0.2833,0.2787,0.3108,0.311,0.3112,0,0.35,0.3448,0.339,0.337,0.3376,0.3374,0.3397,0.3404,0.3397,0.3399,0.3372,0.3328,0.3275,0.3212,0.3153,0.3187,0.3007,0.3026,0.2934,0.2933,0.2766,0.2754,0.2635,0.2901,0.2901,0.2902,0.2902,0,0.3341,0.3282,0.3337,0.3288,0.326,0.331,0.3269,0.33,0.331,0.3265,0.3322,0.3248,0.3232,0.315,0.3114,0.2977,0.2961,0.2907,0.2877,0.2814,0.2809,0.269,0.2676,0.2896,0.2897,0.2898,0.2899,0,0.316,0.3177,0.313,0.3172,0.3181,0.3169,0.3197,0.3165,0.3213,0.3154,0.3152,0.3151,0.3064,0.3043,0.2917,0.2886,0.2695,0.2736,0.2681,0.2648,0.2541,0.2538,0.2218,0.2161,0.2594,0.2592,0.2591,0,0.3034,0.2996,0.3035,0.3021,0.3034,0.3035,0.3017,0.3091,0.3052,0.3061,0.3004,0.2961,0.2895,0.2758,0.2712,0.263,0.2573,0.2473,0.2513,0.2495,0.2468,0.2386,0.2357,0.2349,0.2346,0.2343,0.2341,0,0.2851,0.2887,0.2879,0.2851,0.2839,0.2806,0.2799,0.2765,0.2824,0.2795,0.2729,0.2706,0.2656,0.2545,0.2501,0.2442,0.2368,0.2416,0.2379,0.2239,0.2148,0.2094,0.2519,0.2317,0.2319,0.2321,0.2322,0.2323,0.2734,0.2705,0.2707,0.2654,0.2637,0.2553,0.249,0.2488,0.2425,0.2383,0.2451,0.2405,0.2409,0.2353,0.229,0.2173,0.2177,0.2095,0.2083,0.1995,0.1954,0.2348,0.214,0.2141,0.2142,0.2143,0.2144,0,0.2578,0.2555,0.2502,0.2428,0.2323,0.2374,0.2303,0.2235,0.2126,0.2162,0.2133,0.2116,0.2042,0.2053,0.1974,0.1868,0.179,0.1795,0.1658,0.1645,0.1963,0.1976,0.1744,0.1744,0.1744,0.1744,0.1744,0.1744,0.2501,0.2401,0.2353,0.2118,0.2062,0.192,0.1864,0.1818,0.1824,0.1759,0.1756,0.1801,0.1857,0.1792,0.1675,0.163,0.151,0.1391,0.1417,0.1681,0.1709,0.1735,0.1745,0.1468,0.1468,0.1033,0.103,0.1027]},{"header":{"parameterUnit":"m.s-1","parameterCategory":2,"la1":30.2991,"la2":30.254,"lo1":-89.0895,"lo2":-89.0444,"dy":0.0017,"dx":0.0017,"nx":28,"ny":28,"refTime":"2023-10-05T09:00:00:Z","depth":"0","parameterNumber":3,"parameterNumberName":"V-component_of_CURRENTS"},"data":[0,0,0,0,0,0,0,0,0,0,0,0,0,0,0,0,0,0,0,0,0,0,0,0,0,0,0,0,0,0,0,0,0,0,0,0,0,0,0,0,0,0,0,0,0,0,0,0,0,0,0,0,0,0,0,0,0,0,-0.0386,-0.0384,0,-0.0294,-0.0294,-0.0294,-0.0273,-0.0273,-0.0272,-0.0271,-0.0199,-0.0198,-0.0197,0,0,0,0,0,0,0,0,0,0,0,0,0,-0.0443,-0.0444,-0.0386,-0.0384,-0.0381,-0.0294,-0.0294,-0.0294,-0.0273,-0.0273,-0.0272,-0.0271,-0.02,-0.0198,-0.0197,0,0,0,0,0,0,0,0,0,0,0,0,0,-0.0405,-0.0444,-0.0387,-0.035,-0.0344,-0.0294,-0.0294,-0.0294,-0.0274,-0.0273,-0.0272,-0.0271,-0.02,-0.0198,-0.0196,-0.0206,0,0,-0.0191,-0.019,0,0,0,0,0,0,0,0,-0.0408,-0.0405,-0.0358,-0.0352,-0.0346,-0.0281,-0.0286,-0.026,-0.0274,-0.0316,-0.0271,-0.027,-0.0219,-0.0216,-0.0222,-0.0202,-0.0199,-0.019,-0.0189,-0.0188,-0.0188,0,0,0,0,0,0,0,-0.0411,-0.0408,-0.0365,-0.0355,-0.0347,-0.0301,-0.0297,-0.0282,-0.0287,-0.0312,-0.0307,-0.0273,-0.0218,-0.0224,-0.022,-0.0198,-0.019,-0.0189,-0.0188,-0.0187,-0.0138,-0.0138,0,0,0,0,0,0,-0.0399,-0.0412,-0.0367,-0.036,-0.0358,-0.03,-0.0297,-0.0315,-0.0286,-0.0276,-0.0274,-0.0272,-0.0228,-0.0222,-0.0217,-0.0198,-0.0188,-0.0187,-0.0186,-0.0138,-0.0138,-0.0138,0,0,0,0,0,0,-0.0402,-0.0398,-0.0371,-0.0368,-0.036,-0.03,-0.0321,-0.0313,-0.0308,-0.0254,-0.0248,-0.0272,-0.0226,-0.022,-0.0218,-0.0195,-0.0186,-0.0184,-0.0138,-0.0138,-0.0138,-0.0177,0,0,0,0,0,0,-0.0405,-0.0402,-0.0418,-0.037,-0.0359,-0.0344,-0.032,-0.0312,-0.0281,-0.0279,-0.0251,-0.0243,-0.0225,-0.0221,-0.0216,-0.0193,-0.0183,-0.0139,-0.0138,-0.0138,-0.0176,-0.0178,-0.018,0,0,0,0,0,-0.0408,-0.0449,-0.0421,-0.0413,-0.0384,-0.0342,-0.0336,-0.0297,-0.0282,-0.0289,-0.0279,-0.0244,-0.0214,-0.0221,-0.0215,-0.019,-0.0139,-0.0138,-0.0138,-0.0175,-0.0177,-0.018,0,0,0,0,0,0,-0.049,-0.0447,-0.0416,-0.0443,-0.0386,-0.0333,-0.0338,-0.0297,-0.0296,-0.0299,-0.0262,-0.0256,-0.0238,-0.0216,-0.0224,-0.0173,-0.0162,-0.016,-0.0192,-0.0194,-0.0196,-0.0159,-0.0181,0,0,0,0,0,-0.0508,-0.0521,-0.0456,-0.0468,-0.0455,-0.0394,-0.0372,-0.0335,-0.0311,-0.031,-0.0283,-0.0257,-0.0234,-0.0219,-0.02,-0.0186,-0.0152,-0.0159,-0.0161,-0.0163,-0.0128,-0.008,-0.0074,-0.0137,-0.0137,-0.0137,0,0,-0.0529,-0.0509,-0.051,-0.0481,-0.0452,-0.0413,-0.0386,-0.0357,-0.0317,-0.0302,-0.0282,-0.027,-0.0234,-0.0218,-0.0205,-0.0196,-0.0137,-0.0162,-0.0164,-0.0127,-0.0079,-0.0073,-0.0067,-0.0136,-0.0136,-0.0136,0,0,-0.0546,-0.0578,-0.0569,-0.0535,-0.0471,-0.0442,-0.0428,-0.0374,-0.036,-0.0332,-0.0307,-0.028,-0.0255,-0.0215,-0.0192,-0.0191,-0.0154,-0.0187,-0.0161,-0.0117,-0.0111,-0.0105,-0.0095,-0.0088,-0.0183,-0.0183,-0.0183,0,-0.0563,-0.0545,-0.0555,-0.0524,-0.0483,-0.0451,-0.0404,-0.0395,-0.0336,-0.0308,-0.0328,-0.0251,-0.0239,-0.0172,-0.0183,-0.0189,-0.0177,-0.016,-0.0119,-0.0112,-0.0106,-0.0096,-0.0088,-0.0185,-0.0184,-0.0184,-0.0184,0,-0.0547,-0.0522,-0.0527,-0.0477,-0.0455,-0.0421,-0.0383,-0.0365,-0.0347,-0.0302,-0.025,-0.0243,-0.0177,-0.0182,-0.019,-0.0124,-0.014,-0.0136,-0.0114,-0.0102,-0.0093,-0.0084,-0.0187,-0.0187,-0.0186,-0.0186,0,0,-0.0577,-0.052,-0.0509,-0.0453,-0.0422,-0.0388,-0.0366,-0.03,-0.0241,-0.0233,-0.0146,-0.0143,-0.0125,-0.0097,-0.0092,-0.0067,-0.0048,-0.0091,-0.0088,-0.0082,0.0019,0.0001,0.001,-0.0049,-0.0046,-0.0044,-0.0009,0,-0.0531,-0.0448,-0.0448,-0.0358,-0.0306,-0.0298,-0.0263,-0.0213,-0.0184,-0.0115,-0.01,-0.0033,-0.0097,-0.0057,-0.005,-0.0032,-0.0017,-0.0059,0.0011,0.0013,-0.0004,0.0024,0.0059,0.0094,0.0001,0.0002,0.0003,0,-0.0465,-0.0425,-0.0327,-0.0247,-0.0231,-0.0191,-0.0113,-0.0076,-0.0009,0.0017,0.0065,0.0081,0.0122,0.0069,0.0094,0.0063,0.0043,0.0039,0.004,0.0059,0.0016,0.0077,0.0116,0.0062,0.0019,0.0017,0.0016,0,-0.039,-0.0319,-0.0234,-0.0209,-0.0142,-0.0104,-0.0079,-0.0017,0.0045,0.012,0.0188,0.021,0.0259,0.0232,0.0181,0.0146,0.0207,0.0167,0.0135,0.0131,0.0201,0.02,0.0209,0.0207,0.0206,0.0206,0.0206,0,-0.0294,-0.022,-0.0189,-0.0132,-0.0043,-0.0035,0.0075,0.0104,0.0186,0.0294,0.0269,0.0362,0.0303,0.0315,0.024,0.0214,0.0252,0.0164,0.0158,0.0181,0.0179,0.0167,0.0127,0.0208,0.0207,0.0207,0.0207,0,-0.0169,-0.0145,-0.0049,-0.0003,0.002,0.0084,0.0169,0.0259,0.0301,0.0446,0.048,0.0503,0.0508,0.0435,0.0412,0.0319,0.0265,0.0267,0.0275,0.0269,0.0169,0.0125,0.0168,0.0147,0.0244,0.0244,0.0244,0,-0.0077,-0.0014,0.0046,0.0105,0.0136,0.0219,0.0301,0.0335,0.0429,0.0542,0.063,0.0662,0.0709,0.0631,0.0494,0.0385,0.0308,0.0325,0.0277,0.0194,0.0141,0.0108,0.0085,0.0334,0.0334,0.0335,0.0336,0,0.0066,0.0075,0.0136,0.0252,0.0335,0.0422,0.0521,0.0602,0.0667,0.077,0.0882,0.0919,0.0846,0.0757,0.0584,0.0487,0.03,0.0333,0.0276,0.0247,0.0193,0.0159,0.0244,0.0341,0.0341,0.034,0.034,0.034,0.0162,0.0222,0.0296,0.0403,0.0496,0.0606,0.0684,0.079,0.0919,0.1049,0.1062,0.1134,0.0982,0.0756,0.0609,0.0372,0.0354,0.0299,0.026,0.0239,0.0209,0.0283,0.035,0.035,0.0349,0.0349,0.0349,0,0.0284,0.0342,0.0451,0.056,0.0662,0.0683,0.0827,0.0902,0.1042,0.1171,0.1252,0.1246,0.106,0.0827,0.0515,0.034,0.0266,0.0241,0.0219,0.0202,0.0308,0.03,0.0328,0.0328,0.0328,0.0328,0.0328,0.0328,0.0357,0.0471,0.0513,0.068,0.0752,0.087,0.0937,0.1053,0.1159,0.1312,0.1379,0.1405,0.1269,0.0712,0.0363,0.0272,0.0158,0.0138,0.0065,0.0139,0.0141,0.0143,0.0127,0.0117,0.0117,-0.0003,-0.0004,-0.0005]}],[{"header":{"parameterUnit":"m.s-1","parameterCategory":2,"la1":30.2991,"la2":30.254,"lo1":-89.0895,"lo2":-89.0444,"dy":0.0017,"dx":0.0017,"nx":28,"ny":28,"refTime":"2023-10-05T09:00:00:Z","depth":"2","parameterNumber":2,"parameterNumberName":"U-component_of_CURRENTS"},"data":[0,0,0,0,0,0,0,0,0,0,0,0,0,0,0,0,0,0,0,0,0,0,0,0,0,0,0,0,0,0,0,0,0,0,0,0,0,0,0,0,0,0,0,0,0,0,0,0,0,0,0,0,0,0,0,0,0,0,0.1874,0.1875,0,0.1855,0.1854,0.1853,0.1744,0.1742,0.1741,0.174,0.1807,0.181,0.1814,0,0,0,0,0,0,0,0,0,0,0,0,0,0.1799,0.18,0.1874,0.1875,0.1876,0.1856,0.1854,0.1853,0.1744,0.1742,0.1741,0.1739,0.1806,0.181,0.1814,0,0,0,0,0,0,0,0,0,0,0,0,0,0.18,0.18,0.1874,0.1828,0.1825,0.1856,0.1854,0.1852,0.1745,0.1742,0.174,0.1738,0.1805,0.181,0.1814,0.189,0,0,0.1829,0.1831,0,0,0,0,0,0,0,0,0.18,0.1801,0.1834,0.1831,0.1828,0.181,0.1853,0.1873,0.1745,0.1762,0.174,0.1737,0.1826,0.1829,0.1812,0.1893,0.1896,0.183,0.1832,0.1834,0.1836,0,0,0,0,0,0,0,0.18,0.1801,0.1854,0.1835,0.1832,0.1804,0.18,0.1855,0.1799,0.1761,0.1756,0.1774,0.1823,0.1807,0.1813,0.1897,0.1829,0.1834,0.1837,0.1839,0.1975,0.1976,0,0,0,0,0,0,0.183,0.1802,0.1855,0.1855,0.1822,0.1808,0.1803,0.1808,0.1797,0.1795,0.1776,0.1769,0.18,0.1808,0.1816,0.1872,0.1834,0.1839,0.1842,0.1974,0.1975,0.1976,0,0,0,0,0,0,0.1829,0.1835,0.1856,0.1838,0.184,0.1813,0.1819,0.1809,0.1804,0.1809,0.1806,0.1783,0.1799,0.1809,0.1837,0.1875,0.1841,0.1846,0.1973,0.1975,0.1976,0.2007,0,0,0,0,0,0,0.1826,0.1834,0.184,0.184,0.1843,0.187,0.1822,0.1811,0.1824,0.1815,0.1816,0.1818,0.1798,0.1829,0.1842,0.1881,0.1849,0.1972,0.1974,0.1975,0.2005,0.2009,0.2013,0,0,0,0,0,0.1823,0.1826,0.184,0.1847,0.1854,0.1872,0.1869,0.1834,0.1828,0.1821,0.1807,0.1818,0.1847,0.1834,0.1848,0.189,0.1972,0.1974,0.1975,0.2003,0.2008,0.2012,0,0,0,0,0,0,0.1812,0.1817,0.1831,0.1842,0.1866,0.1858,0.1854,0.186,0.1845,0.184,0.1834,0.1835,0.1878,0.1882,0.1868,0.193,0.1912,0.1916,0.1929,0.1934,0.1937,0.1932,0.1853,0,0,0,0,0,0.182,0.1812,0.1842,0.1859,0.1869,0.1878,0.1884,0.1878,0.1877,0.1866,0.1864,0.1872,0.1899,0.191,0.1928,0.1976,0.1974,0.2009,0.2012,0.2016,0.2019,0.2031,0.2036,0.1981,0.1981,0.1981,0,0,0.1825,0.1834,0.183,0.1856,0.1865,0.1884,0.187,0.1892,0.1899,0.1888,0.1881,0.19,0.1916,0.1941,0.1963,0.1947,0.2031,0.2018,0.202,0.2022,0.2033,0.2038,0.2043,0.1983,0.1982,0.1982,0,0,0.1837,0.1842,0.1841,0.1861,0.1898,0.1899,0.1921,0.1929,0.1912,0.1933,0.1926,0.1952,0.1983,0.1984,0.1999,0.2046,0.2058,0.2071,0.2083,0.2094,0.2099,0.2102,0.211,0.2114,0.2062,0.2062,0.2063,0,0.1843,0.1852,0.1851,0.1872,0.1885,0.1915,0.1935,0.1937,0.195,0.1953,0.1928,0.1981,0.1995,0.2048,0.2044,0.2057,0.2064,0.2065,0.2099,0.2103,0.2106,0.2112,0.2117,0.2064,0.2064,0.2064,0.2064,0,0.1863,0.1873,0.188,0.1901,0.1919,0.1939,0.1961,0.1969,0.1968,0.1977,0.2017,0.2019,0.2047,0.2067,0.2068,0.2122,0.212,0.211,0.2087,0.2114,0.2118,0.2122,0.2067,0.2066,0.2066,0.2065,0,0,0.1842,0.1878,0.1879,0.189,0.1929,0.1942,0.1965,0.1988,0.2004,0.2018,0.2032,0.2077,0.2096,0.2113,0.2137,0.2144,0.2173,0.2139,0.2139,0.2145,0.2203,0.2142,0.214,0.2174,0.2175,0.2175,0.2197,0,0.185,0.1876,0.1894,0.1919,0.1926,0.1954,0.1974,0.2008,0.2013,0.203,0.2065,0.2099,0.2112,0.2136,0.2151,0.2176,0.2185,0.2168,0.2177,0.2177,0.2119,0.2143,0.1969,0.1969,0.2201,0.2201,0.2202,0,0.1855,0.1859,0.1882,0.1908,0.1916,0.1946,0.1967,0.1993,0.2042,0.2053,0.2101,0.2126,0.2181,0.2164,0.2217,0.221,0.2211,0.2214,0.2214,0.2149,0.2123,0.1979,0.1967,0.2208,0.2208,0.2207,0.2207,0,0.1815,0.1847,0.1855,0.1866,0.1909,0.1925,0.1955,0.2004,0.202,0.208,0.21,0.2165,0.2195,0.2217,0.2236,0.223,0.2268,0.2253,0.2201,0.2197,0.2044,0.2024,0.2273,0.2273,0.2273,0.2273,0.2273,0,0.1799,0.1801,0.184,0.184,0.1852,0.1905,0.193,0.197,0.203,0.2062,0.2123,0.2153,0.2209,0.2236,0.2245,0.2241,0.2279,0.2209,0.2199,0.205,0.2032,0.2233,0.2229,0.2273,0.2273,0.2273,0.2273,0,0.1759,0.1789,0.1788,0.1822,0.1836,0.1849,0.1911,0.1932,0.2007,0.2045,0.2072,0.2153,0.2198,0.2235,0.2267,0.2244,0.2246,0.2231,0.2054,0.2022,0.2163,0.216,0.217,0.2168,0.2166,0.2165,0.2164,0,0.174,0.1738,0.1757,0.1761,0.1778,0.1807,0.1831,0.191,0.1936,0.2037,0.2053,0.2123,0.215,0.2185,0.2167,0.2165,0.2219,0.1986,0.1934,0.2164,0.2154,0.2153,0.2152,0.1747,0.1743,0.1739,0.1736,0,0.1682,0.1697,0.1695,0.1704,0.1724,0.1733,0.1779,0.1792,0.1887,0.1924,0.1981,0.2014,0.2064,0.1984,0.199,0.1964,0.1972,0.191,0.2195,0.1801,0.1767,0.1757,0.1769,0.1704,0.1707,0.1709,0.1711,0.1712,0.1636,0.1623,0.1636,0.1636,0.1657,0.166,0.1643,0.1691,0.1715,0.1754,0.1848,0.1839,0.1857,0.1778,0.172,0.167,0.1808,0.1707,0.1717,0.1732,0.168,0.1645,0.1549,0.1551,0.1553,0.1555,0.1556,0,0.1569,0.1572,0.157,0.1564,0.1552,0.1592,0.1601,0.1569,0.1554,0.1612,0.1638,0.1508,0.1451,0.1474,0.1351,0.1339,0.1323,0.1273,0.1234,0.1268,0.1298,0.1223,0.0971,0.0969,0.0967,0.0966,0,0,0.1539,0.1514,0.1507,0.1458,0.1458,0.1413,0.1396,0.1366,0.1375,0.1335,0.1313,0.141,0.1443,0.1201,0.1158,0.1044,0.1151,0.0999,0.1471,0.1461,0.1488,0.155,0.1474,0,0,0,0,0]},{"header":{"parameterUnit":"m.s-1","parameterCategory":2,"la1":30.2991,"la2":30.254,"lo1":-89.0895,"lo2":-89.0444,"dy":0.0017,"dx":0.0017,"nx":28,"ny":28,"refTime":"2023-10-05T09:00:00:Z","depth":"2","parameterNumber":3,"parameterNumberName":"V-component_of_CURRENTS"},"data":[0,0,0,0,0,0,0,0,0,0,0,0,0,0,0,0,0,0,0,0,0,0,0,0,0,0,0,0,0,0,0,0,0,0,0,0,0,0,0,0,0,0,0,0,0,0,0,0,0,0,0,0,0,0,0,0,0,0,0.0382,0.0382,0,0.0402,0.0403,0.0404,0.0453,0.0454,0.0454,0.0455,0.0401,0.0399,0.0397,0,0,0,0,0,0,0,0,0,0,0,0,0,0.038,0.038,0.0382,0.0382,0.0382,0.0402,0.0403,0.0404,0.0453,0.0454,0.0454,0.0455,0.0402,0.04,0.0397,0,0,0,0,0,0,0,0,0,0,0,0,0,0.0394,0.038,0.0382,0.0405,0.0406,0.0402,0.0403,0.0404,0.0453,0.0454,0.0455,0.0455,0.0403,0.04,0.0397,0.0363,0,0,0.0388,0.0387,0,0,0,0,0,0,0,0,0.0393,0.0395,0.0402,0.0403,0.0405,0.0421,0.0382,0.0385,0.0453,0.0441,0.0455,0.0456,0.0397,0.0394,0.0406,0.0361,0.0359,0.0388,0.0386,0.0385,0.0384,0,0,0,0,0,0,0,0.0392,0.0394,0.0396,0.0401,0.0403,0.0411,0.0414,0.0384,0.0417,0.0442,0.0445,0.0438,0.0398,0.0408,0.0404,0.0358,0.0388,0.0385,0.0384,0.0383,0.0327,0.0327,0,0,0,0,0,0,0.0378,0.0393,0.0395,0.0396,0.0394,0.041,0.0414,0.042,0.0419,0.0419,0.0437,0.044,0.0413,0.0408,0.0402,0.0392,0.0385,0.0382,0.0381,0.0327,0.0327,0.0327,0,0,0,0,0,0,0.0378,0.0378,0.0394,0.039,0.0392,0.0409,0.0415,0.042,0.0426,0.0415,0.0415,0.0437,0.0413,0.0406,0.039,0.0389,0.0381,0.0378,0.0326,0.0327,0.0327,0.0352,0,0,0,0,0,0,0.0378,0.0379,0.0393,0.0389,0.0391,0.04,0.0413,0.0419,0.0418,0.0422,0.0414,0.0411,0.0413,0.0395,0.0388,0.0385,0.0376,0.0326,0.0326,0.0327,0.035,0.0353,0.0355,0,0,0,0,0,0.0378,0.0399,0.0394,0.0394,0.0405,0.0399,0.0402,0.042,0.0417,0.0427,0.0425,0.0411,0.0393,0.0393,0.0384,0.038,0.0326,0.0326,0.0327,0.035,0.0352,0.0355,0,0,0,0,0,0,0.0406,0.0404,0.0399,0.0418,0.0407,0.0406,0.0419,0.041,0.0417,0.0415,0.0408,0.0405,0.0391,0.0379,0.0379,0.0368,0.0358,0.0357,0.0378,0.0381,0.0383,0.0394,0.0374,0,0,0,0,0,0.0413,0.0424,0.0413,0.0421,0.042,0.0411,0.0412,0.0409,0.0404,0.0409,0.0412,0.0403,0.0386,0.0379,0.0369,0.0352,0.0335,0.0346,0.0349,0.035,0.0355,0.0328,0.0328,0.0329,0.0329,0.0329,0,0,0.042,0.0419,0.0425,0.0426,0.0422,0.0428,0.0417,0.0408,0.0417,0.0396,0.0424,0.0404,0.0382,0.0381,0.0373,0.037,0.0342,0.0351,0.0353,0.0356,0.0328,0.0328,0.0328,0.0329,0.0329,0.0329,0,0,0.043,0.044,0.0452,0.0449,0.0433,0.0432,0.0423,0.0421,0.0434,0.0435,0.0425,0.0408,0.0399,0.0391,0.0379,0.0379,0.0351,0.0371,0.039,0.0364,0.0364,0.0363,0.0343,0.034,0.0375,0.0375,0.0375,0,0.0438,0.0455,0.0452,0.0458,0.046,0.0432,0.0439,0.0444,0.0441,0.0444,0.045,0.0429,0.0408,0.0386,0.0398,0.0383,0.0365,0.0382,0.0367,0.0366,0.0365,0.0344,0.0341,0.0376,0.0376,0.0376,0.0376,0,0.0453,0.0471,0.0475,0.0482,0.0484,0.048,0.0476,0.0487,0.0488,0.0485,0.0476,0.0458,0.0445,0.0432,0.0415,0.0393,0.0382,0.0369,0.036,0.0366,0.0344,0.034,0.0378,0.0378,0.0377,0.0377,0,0,0.0461,0.0484,0.0487,0.0499,0.0495,0.0496,0.0512,0.0516,0.0524,0.0522,0.0534,0.0502,0.0481,0.0465,0.0434,0.0412,0.0387,0.0391,0.0389,0.0371,0.0332,0.033,0.0325,0.037,0.0369,0.0369,0.032,0,0.0473,0.0501,0.0508,0.0531,0.0548,0.0541,0.0561,0.0555,0.0558,0.0571,0.0533,0.0527,0.0495,0.0482,0.0454,0.0403,0.0378,0.0402,0.0329,0.0327,0.0324,0.0321,0.0333,0.0291,0.0316,0.0315,0.0315,0,0.0486,0.051,0.0541,0.0568,0.0575,0.0584,0.0604,0.0615,0.061,0.0612,0.059,0.0564,0.0525,0.0504,0.0422,0.0437,0.0388,0.0351,0.0348,0.0335,0.0318,0.0288,0.0282,0.0308,0.0308,0.0309,0.0309,0,0.0497,0.0532,0.0562,0.057,0.0597,0.0611,0.0622,0.0624,0.0641,0.0632,0.064,0.0586,0.0568,0.0499,0.0424,0.0419,0.0341,0.0323,0.0275,0.0274,0.0265,0.0265,0.0268,0.0268,0.0268,0.0268,0.0268,0,0.051,0.0534,0.0572,0.0588,0.0626,0.063,0.0659,0.0665,0.0674,0.0693,0.0656,0.066,0.0566,0.0514,0.0437,0.0348,0.0347,0.0278,0.026,0.0275,0.0276,0.0277,0.0278,0.0266,0.0267,0.0267,0.0267,0,0.0512,0.0536,0.0575,0.0617,0.0632,0.0656,0.0691,0.0713,0.0715,0.0742,0.0742,0.0709,0.0645,0.0552,0.0444,0.037,0.0283,0.0252,0.028,0.0267,0.0229,0.0233,0.0188,0.0188,0.0187,0.0187,0.0186,0,0.0513,0.0537,0.0596,0.0625,0.0646,0.0685,0.0714,0.0732,0.0759,0.0777,0.0794,0.0748,0.0729,0.0573,0.0441,0.0309,0.0287,0.0223,0.0213,0.0233,0.022,0.0225,0.0229,0.0209,0.0209,0.0209,0.0209,0,0.0523,0.0545,0.0582,0.0641,0.0683,0.0732,0.0774,0.0805,0.0832,0.0862,0.0886,0.0874,0.0743,0.0617,0.0438,0.0344,0.0244,0.0217,0.0224,0.0233,0.025,0.0239,0.0242,0.0208,0.0208,0.0208,0.0208,0.0208,0.0529,0.0556,0.0604,0.0658,0.0708,0.0769,0.0808,0.0864,0.0919,0.0961,0.0951,0.0936,0.0794,0.0571,0.0412,0.0241,0.0255,0.0183,0.0185,0.0185,0.0202,0.0219,0.0174,0.0174,0.0173,0.0173,0.0173,0,0.0537,0.057,0.0617,0.0681,0.0728,0.0761,0.0842,0.0887,0.0962,0.1005,0.1028,0.0887,0.0754,0.0585,0.0345,0.0201,0.0183,0.0139,0.0154,0.0157,0.0158,0.0174,0.0137,0.0136,0.0136,0.0135,0,0,0.0544,0.0583,0.0607,0.0678,0.0725,0.0798,0.0847,0.0927,0.0981,0.1023,0.1017,0.1,0.081,0.0622,0.0428,0.0285,0.0248,0.0248,0.0295,0.0339,0.0342,0.0205,0.0235,0,0,0,0,0]}],[{"header":{"parameterUnit":"m.s-1","parameterCategory":2,"la1":30.2991,"la2":30.254,"lo1":-89.0895,"lo2":-89.0444,"dy":0.0017,"dx":0.0017,"nx":28,"ny":28,"refTime":"2023-10-05T09:00:00:Z","depth":"4","parameterNumber":2,"parameterNumberName":"U-component_of_CURRENTS"},"data":[0,0,0,0,0,0,0,0,0,0,0,0,0,0,0,0,0,0,0,0,0,0,0,0,0,0,0,0,0,0,0,0,0,0,0,0,0,0,0,0,0,0,0,0,0,0,0,0,0,0,0,0,0,0,0,0,0,0,0.0972,0.0973,0,0.1026,0.1026,0.1027,0.1062,0.1062,0.1062,0.1063,0.1115,0.1116,0.1117,0,0,0,0,0,0,0,0,0,0,0,0,0,0.091,0.0911,0.0972,0.0973,0.0973,0.1026,0.1026,0.1027,0.1062,0.1062,0.1062,0.1063,0.1114,0.1116,0.1117,0,0,0,0,0,0,0,0,0,0,0,0,0,0.0948,0.0911,0.0972,0.0997,0.0999,0.1026,0.1026,0.1027,0.1062,0.1062,0.1062,0.1063,0.1114,0.1116,0.1117,0.1123,0,0,0.1123,0.1124,0,0,0,0,0,0,0,0,0.0946,0.095,0.0992,0.0995,0.0998,0.1037,0.1024,0.1059,0.1062,0.1039,0.1063,0.1063,0.1088,0.1092,0.1102,0.1126,0.1128,0.1123,0.1124,0.1125,0.1126,0,0,0,0,0,0,0,0.0943,0.0948,0.0994,0.0993,0.0996,0.1009,0.1014,0.1031,0.1061,0.1041,0.1043,0.1048,0.109,0.11,0.1104,0.1129,0.1123,0.1125,0.1126,0.1127,0.1233,0.1235,0,0,0,0,0,0,0.0935,0.0946,0.0992,0.0995,0.0971,0.1009,0.1016,0.1025,0.1061,0.1067,0.1048,0.105,0.1097,0.1102,0.1106,0.1169,0.1125,0.1127,0.1128,0.1231,0.1233,0.1235,0,0,0,0,0,0,0.0933,0.0939,0.099,0.0971,0.0978,0.101,0.102,0.1026,0.1062,0.1067,0.1073,0.1081,0.1098,0.1103,0.1136,0.1169,0.1128,0.1129,0.1229,0.1232,0.1234,0.1261,0,0,0,0,0,0,0.0931,0.0938,0.0955,0.0971,0.0979,0.102,0.102,0.1026,0.1063,0.1066,0.1097,0.11,0.1098,0.1133,0.1138,0.1171,0.1131,0.1227,0.1231,0.1234,0.1257,0.1264,0.1269,0,0,0,0,0,0.0929,0.094,0.0956,0.0962,0.0998,0.1021,0.1027,0.105,0.1064,0.1084,0.1101,0.1101,0.1158,0.1135,0.114,0.1175,0.1226,0.123,0.1233,0.1255,0.1262,0.1269,0,0,0,0,0,0,0.0919,0.0945,0.0963,0.0982,0.101,0.1027,0.1044,0.1067,0.1098,0.1105,0.1114,0.1119,0.1162,0.1168,0.1143,0.1218,0.1196,0.1201,0.1211,0.1218,0.1224,0.1227,0.1132,0,0,0,0,0,0.0926,0.0945,0.0972,0.0991,0.1003,0.1033,0.1051,0.107,0.1091,0.1107,0.1129,0.1155,0.118,0.1197,0.1216,0.1252,0.126,0.1283,0.1289,0.1293,0.1302,0.1338,0.1347,0.1248,0.1248,0.1248,0,0,0.0923,0.0945,0.0954,0.0992,0.1011,0.104,0.1045,0.1075,0.1106,0.1107,0.1156,0.1175,0.1194,0.1232,0.1254,0.1243,0.1326,0.1298,0.1302,0.1308,0.1343,0.1353,0.1361,0.1251,0.125,0.125,0,0,0.0926,0.0951,0.097,0.0997,0.1036,0.1055,0.1072,0.1108,0.1132,0.1176,0.1187,0.1225,0.1265,0.1284,0.1299,0.1352,0.1354,0.1368,0.1401,0.1436,0.1444,0.1451,0.1468,0.1476,0.1372,0.1372,0.1372,0,0.093,0.0958,0.0979,0.1009,0.1033,0.1067,0.1097,0.1125,0.1172,0.1193,0.1197,0.1274,0.129,0.134,0.136,0.1365,0.1379,0.1367,0.1441,0.1449,0.1456,0.1472,0.1481,0.1374,0.1374,0.1373,0.1373,0,0.0944,0.0979,0.0989,0.1041,0.107,0.1099,0.1138,0.1175,0.1211,0.124,0.1301,0.1326,0.1373,0.139,0.1391,0.1457,0.1449,0.144,0.1418,0.1467,0.1481,0.149,0.1376,0.1376,0.1375,0.1375,0,0,0.0929,0.0989,0.0998,0.1028,0.1092,0.1113,0.1165,0.1217,0.1256,0.1306,0.1359,0.141,0.1433,0.1452,0.1468,0.1502,0.156,0.1498,0.1499,0.1505,0.1631,0.15,0.1497,0.1565,0.1567,0.1569,0.1619,0,0.0942,0.0991,0.1024,0.1081,0.1109,0.1156,0.1203,0.1255,0.13,0.1357,0.1397,0.1454,0.1454,0.1488,0.1522,0.1555,0.1587,0.1547,0.1593,0.1594,0.1462,0.1504,0.1575,0.1625,0.1627,0.1629,0.163,0,0.0952,0.0985,0.1036,0.1104,0.1121,0.1165,0.1241,0.1288,0.1365,0.1402,0.1462,0.1496,0.1567,0.1556,0.1635,0.1611,0.163,0.1645,0.1647,0.1522,0.1479,0.157,0.1646,0.1644,0.1643,0.1642,0.1641,0,0.0928,0.0996,0.1035,0.106,0.114,0.1177,0.1228,0.1304,0.1349,0.144,0.1485,0.1557,0.1611,0.165,0.1685,0.1672,0.1756,0.1737,0.1634,0.1624,0.1715,0.1707,0.1791,0.1791,0.1791,0.1791,0.1791,0,0.0925,0.0962,0.1029,0.1054,0.1108,0.117,0.124,0.1297,0.1383,0.1439,0.1513,0.1562,0.1642,0.1692,0.1708,0.1693,0.1776,0.1645,0.1631,0.1725,0.1717,0.1721,0.1712,0.1793,0.1792,0.1792,0.1792,0,0.0896,0.0942,0.0993,0.1072,0.1102,0.1142,0.1245,0.129,0.138,0.1457,0.1493,0.1591,0.1647,0.1699,0.1764,0.1711,0.1716,0.169,0.1787,0.1777,0.1555,0.1548,0.1575,0.1571,0.1567,0.1564,0.1562,0,0.0883,0.0906,0.0992,0.1024,0.1066,0.1135,0.1185,0.1281,0.1327,0.1456,0.1485,0.1576,0.1626,0.161,0.1669,0.1677,0.1657,0.1642,0.1595,0.1551,0.1536,0.1533,0.1531,0.1556,0.1555,0.1554,0.1553,0,0.0857,0.0896,0.0936,0.0998,0.1054,0.1104,0.1179,0.12,0.131,0.1402,0.1437,0.1457,0.1511,0.1535,0.155,0.1555,0.164,0.1605,0.1612,0.1567,0.1529,0.1516,0.1518,0.1541,0.1543,0.1544,0.1545,0,0.084,0.0855,0.0914,0.0961,0.1027,0.1056,0.1097,0.1145,0.1196,0.1323,0.133,0.1419,0.15,0.1473,0.1491,0.1477,0.145,0.1392,0.141,0.1424,0.1348,0.1275,0.1202,0,0,0,0,0,0.0814,0.0828,0.0873,0.0919,0.0981,0.1015,0.1091,0.1131,0.1225,0.1215,0.1265,0.1302,0.1313,0.1356,0.131,0.1424,0.146,0.1362,0.1404,0.1473,0.1487,0.1409,0,0,0,0,0,0,0.0797,0.0839,0.0853,0.0876,0.0896,0.0952,0.0991,0.105,0.1043,0.1138,0.1153,0.1217,0.1252,0.133,0.1286,0.1297,0.1292,0.1412,0.1408,0.1465,0.1478,0.1489,0.1414,0,0,0,0,0]},{"header":{"parameterUnit":"m.s-1","parameterCategory":2,"la1":30.2991,"la2":30.254,"lo1":-89.0895,"lo2":-89.0444,"dy":0.0017,"dx":0.0017,"nx":28,"ny":28,"refTime":"2023-10-05T09:00:00:Z","depth":"4","parameterNumber":3,"parameterNumberName":"V-component_of_CURRENTS"},"data":[0,0,0,0,0,0,0,0,0,0,0,0,0,0,0,0,0,0,0,0,0,0,0,0,0,0,0,0,0,0,0,0,0,0,0,0,0,0,0,0,0,0,0,0,0,0,0,0,0,0,0,0,0,0,0,0,0,0,0.0412,0.0412,0,0.042,0.042,0.042,0.0434,0.0435,0.0435,0.0435,0.0437,0.0437,0.0437,0,0,0,0,0,0,0,0,0,0,0,0,0,0.0366,0.0367,0.0412,0.0412,0.0412,0.042,0.042,0.042,0.0434,0.0435,0.0435,0.0436,0.0437,0.0437,0.0437,0,0,0,0,0,0,0,0,0,0,0,0,0,0.038,0.0367,0.0412,0.0421,0.0422,0.042,0.042,0.042,0.0434,0.0435,0.0435,0.0436,0.0437,0.0437,0.0436,0.0423,0,0,0.0435,0.0435,0,0,0,0,0,0,0,0,0.038,0.0382,0.0419,0.042,0.0421,0.0428,0.0405,0.0421,0.0434,0.0429,0.0435,0.0436,0.0434,0.0433,0.0433,0.0423,0.0424,0.0435,0.0435,0.0435,0.0435,0,0,0,0,0,0,0,0.0379,0.0381,0.0414,0.042,0.0421,0.041,0.0413,0.0408,0.0427,0.0429,0.043,0.0433,0.0434,0.0433,0.0433,0.0424,0.0435,0.0435,0.0435,0.0434,0.0428,0.0429,0,0,0,0,0,0,0.0381,0.0381,0.0414,0.0415,0.0402,0.0411,0.0414,0.0424,0.0427,0.0429,0.0432,0.0433,0.0433,0.0433,0.0433,0.0449,0.0435,0.0434,0.0434,0.0428,0.0429,0.0429,0,0,0,0,0,0,0.038,0.0384,0.0414,0.0398,0.0401,0.0411,0.0423,0.0424,0.0428,0.043,0.0431,0.0435,0.0434,0.0433,0.0443,0.0448,0.0434,0.0434,0.0428,0.0428,0.0429,0.0462,0,0,0,0,0,0,0.0379,0.0384,0.0396,0.0398,0.0402,0.0424,0.0422,0.0424,0.0429,0.0431,0.0433,0.0433,0.0434,0.0444,0.0443,0.0448,0.0433,0.0428,0.0428,0.0429,0.0461,0.0463,0.0466,0,0,0,0,0,0.0378,0.0397,0.0397,0.0401,0.0418,0.0424,0.0425,0.0433,0.0429,0.0436,0.044,0.0433,0.0444,0.0444,0.0442,0.0447,0.0428,0.0428,0.0429,0.046,0.0463,0.0465,0,0,0,0,0,0,0.0389,0.0401,0.04,0.0424,0.0427,0.0427,0.0441,0.0432,0.044,0.0441,0.0439,0.044,0.0449,0.0441,0.0441,0.0445,0.0433,0.0432,0.0457,0.046,0.0462,0.0459,0.0433,0,0,0,0,0,0.0395,0.0409,0.0414,0.0431,0.0439,0.0436,0.044,0.0436,0.0441,0.0444,0.0448,0.0447,0.0446,0.0449,0.0449,0.0451,0.0427,0.0451,0.0453,0.0455,0.0452,0.0418,0.0417,0.0429,0.0429,0.0429,0,0,0.0404,0.041,0.042,0.0433,0.044,0.045,0.044,0.0447,0.0452,0.0442,0.0461,0.0457,0.0449,0.0458,0.046,0.0454,0.044,0.0456,0.0458,0.0452,0.0418,0.0417,0.0415,0.0429,0.0429,0.0429,0,0,0.0424,0.0437,0.0455,0.0458,0.0464,0.0462,0.0464,0.0467,0.0472,0.048,0.0474,0.0473,0.0479,0.0474,0.047,0.048,0.0454,0.048,0.0491,0.0459,0.0457,0.0455,0.0428,0.0424,0.0481,0.0481,0.0481,0,0.0432,0.0454,0.0461,0.0473,0.0478,0.0469,0.0481,0.0483,0.0486,0.049,0.0493,0.0489,0.0484,0.0481,0.0489,0.0485,0.0464,0.0484,0.0461,0.0459,0.0457,0.0429,0.0424,0.0482,0.0482,0.0482,0.0482,0,0.046,0.0476,0.0489,0.0502,0.0509,0.0516,0.0519,0.0526,0.0526,0.0522,0.0526,0.0519,0.0513,0.0511,0.0506,0.0489,0.0478,0.0469,0.0455,0.0458,0.0428,0.0422,0.0485,0.0484,0.0484,0.0483,0,0,0.0473,0.0503,0.0506,0.0514,0.052,0.0527,0.0542,0.0549,0.0553,0.0555,0.0559,0.0554,0.0542,0.0535,0.0522,0.0496,0.0466,0.0479,0.0477,0.0454,0.0396,0.0385,0.0377,0.0453,0.0452,0.0451,0.0384,0,0.0489,0.0518,0.0528,0.0549,0.0563,0.0562,0.0577,0.0577,0.0578,0.0582,0.0565,0.0564,0.0552,0.0548,0.0521,0.048,0.0451,0.0485,0.0395,0.0393,0.0383,0.037,0.0448,0.038,0.0378,0.0377,0.0376,0,0.0509,0.0523,0.0551,0.057,0.0578,0.059,0.0603,0.0612,0.0611,0.0611,0.06,0.0585,0.0557,0.0544,0.0469,0.0492,0.0446,0.0411,0.0407,0.0378,0.037,0.0374,0.0365,0.0366,0.0367,0.0368,0.0368,0,0.0505,0.0537,0.0559,0.0564,0.0587,0.0602,0.0616,0.0622,0.0632,0.0626,0.0626,0.0591,0.0574,0.0512,0.0449,0.0454,0.0361,0.0356,0.03,0.0299,0.0316,0.0318,0.0293,0.0293,0.0293,0.0293,0.0293,0,0.0506,0.0522,0.0562,0.0569,0.0598,0.0612,0.0636,0.0644,0.0652,0.0661,0.064,0.0631,0.0563,0.0509,0.0446,0.0356,0.0355,0.0294,0.0277,0.0333,0.0337,0.0312,0.0315,0.029,0.0291,0.0291,0.0292,0,0.049,0.0517,0.0543,0.058,0.0597,0.0616,0.0658,0.0671,0.0678,0.0686,0.0686,0.0653,0.0586,0.0514,0.041,0.0353,0.0269,0.0236,0.0304,0.0293,0.0228,0.0234,0.016,0.0159,0.0158,0.0157,0.0157,0,0.0482,0.0496,0.0549,0.0573,0.0593,0.063,0.0656,0.0681,0.0694,0.0698,0.0698,0.0648,0.0616,0.0463,0.0387,0.0261,0.0244,0.0192,0.0205,0.0222,0.0212,0.022,0.0226,0.0155,0.0155,0.0155,0.0155,0,0.0461,0.0487,0.0511,0.0561,0.0599,0.064,0.0678,0.0689,0.0713,0.0723,0.0696,0.0631,0.0556,0.0455,0.0359,0.027,0.0221,0.0183,0.0184,0.0195,0.0215,0.0208,0.0216,0.0151,0.0152,0.0152,0.0152,0,0.0447,0.0462,0.0502,0.0544,0.0593,0.0633,0.0659,0.0678,0.0693,0.0701,0.069,0.0624,0.0591,0.0459,0.0371,0.0283,0.0258,0.0217,0.0216,0.0218,0.0259,0.0295,0.0232,0,0,0,0,0,0.043,0.0448,0.0482,0.0529,0.0577,0.061,0.0664,0.0688,0.0715,0.0693,0.0692,0.0626,0.0501,0.0454,0.0361,0.0349,0.024,0.0236,0.0192,0.0134,0.0138,0.0174,0,0,0,0,0,0,0.0419,0.045,0.0469,0.0507,0.0538,0.059,0.0629,0.0654,0.0644,0.066,0.0599,0.0583,0.0467,0.0549,0.0351,0.0328,0.0282,0.0188,0.0185,0.0132,0.0135,0.0138,0.0177,0,0,0,0,0]}]]